Flag for Germany Weather past 2 weeks in Monheim am Rhein, North Rhine-Westphalia, Germany

Now
32 °F

Clear.


Feels Like: 22 °F
Forecast: 22 / 29 °F
Wind: 15 mph from Northeast

Location: Duesseldorf

Current Time: Dec 27, 2014 at 10:37:31 PM

Latest Report: Dec 27, 2014 at 9:50 PM


Visibility: 10 mi

Pressure: 29.65 "Hg

Humidity: 64%

Dew point: 21 °F

Location of Monheim am RheinLocation

Historic Weather in Monheim am Rhein — Graph

°F

Monheim am Rhein temperature yesterday

Maximum temperature yesterday: 41 °F (at 12:20 PM)
Minimum temperature yesterday: 32 °F (at 1:20 AM)
Average temperature yesterday: 37 °F

Past Weeks' High & Low Weather Summary

 TemperatureHumidityPressure
High55 °F (Dec 18, 4:50 PM)100% (Dec 14, 3:50 AM)30.42 "Hg (Dec 14, 3:50 AM)
Low30 °F (Dec 14, 5:50 AM)60% (Dec 27, 9:20 PM)29.42 "Hg (Dec 27, 12:50 PM)
Average43 °F87%30.00 "Hg
* Reported Dec 12 9:20 PM — Dec 27 9:20 PM, Monheim am Rhein, Weather by CustomWeather, © 2014

Note: Actual official high and low records may vary slightly from our data, if they occured in-between our weather recording intervals... More about our weather records

Advertising

Monheim am Rhein weather history for previous 24 hours

 ConditionsComfort  
Time TempWeatherWind HumidityBarometerVisibility
9:20 PM
Dec 27
34 °FClear.18 mph60%29.62 "Hg10 mi
8:50 PM34 °FClear.17 mph65%29.62 "Hg10 mi
8:20 PM34 °FClear.18 mph65%29.59 "Hg10 mi
7:50 PM34 °FClear.18 mph65%29.56 "Hg10 mi
7:20 PM34 °FLight snow. Mostly cloudy.21 mph75%29.56 "HgN/A
6:50 PM34 °FLight snow. Mostly cloudy.20 mph81%29.53 "HgN/A
6:20 PM34 °FLight snow. Mostly cloudy.16 mph87%29.53 "HgN/A
5:50 PM34 °FLight snow. Passing clouds.14 mph93%29.50 "HgN/A
5:20 PM34 °FPassing clouds.14 mph93%29.47 "HgN/A
4:50 PM34 °FPassing clouds.14 mph93%29.47 "HgN/A
4:20 PM34 °FPartly sunny.14 mph93%29.45 "HgN/A
3:50 PM34 °FBroken clouds.13 mph93%29.45 "HgN/A
3:20 PM34 °FLight snow. Broken clouds.13 mph100%29.45 "Hg6 mi
2:50 PM34 °FLight snow. Partly sunny.13 mph100%29.45 "Hg3 mi
2:20 PM34 °FLight snow. Mostly cloudy.14 mph93%29.42 "Hg2 mi
1:50 PM34 °FSnow. Mostly cloudy.12 mph100%29.42 "Hg1 mi
1:20 PM34 °FSnow. Mostly cloudy.10 mph93%29.42 "Hg1 mi
12:50 PM34 °FSnow. Mostly cloudy.10 mph93%29.42 "Hg2 mi
12:20 PM34 °FLight rain. Mostly cloudy.13 mph93%29.45 "Hg4 mi
11:50 AM34 °FLight rain. Fog.13 mph93%29.45 "Hg2 mi
11:20 AM34 °FLight rain. Fog.14 mph93%29.45 "Hg2 mi
10:50 AM34 °FRain. Fog.15 mph93%29.45 "Hg1 mi
10:20 AM34 °FRain. Fog.16 mph93%29.45 "Hg1 mi
9:50 AM34 °FLight rain. Fog.18 mph93%29.45 "Hg2 mi
9:20 AM34 °FRain. Fog.17 mph93%29.45 "Hg1 mi
8:50 AM34 °FLight rain. Fog.18 mph93%29.47 "Hg1 mi
8:20 AM34 °FLight rain. Fog.21 mph93%29.47 "Hg2 mi
7:50 AM34 °FRain. Fog.22 mph93%29.47 "Hg2 mi
7:20 AM34 °FRain. Fog.23 mph93%29.50 "Hg2 mi
6:50 AM34 °FRain. Overcast.23 mph93%29.53 "Hg3 mi
6:20 AM34 °FRain. Overcast.21 mph93%29.56 "Hg3 mi
5:50 AM36 °FRain. Partly cloudy.23 mph93%29.62 "Hg3 mi
5:20 AM36 °FRain. Passing clouds.20 mph93%29.65 "Hg4 mi
4:20 AM37 °FPartly cloudy.23 mph81%29.74 "HgN/A
3:50 AM37 °FPartly cloudy.20 mph81%29.80 "HgN/A
3:20 AM37 °FPassing clouds.18 mph81%29.83 "HgN/A
2:50 AM37 °FClear.18 mph81%29.86 "Hg10 mi
2:20 AM37 °FClear.18 mph81%29.89 "Hg10 mi
1:50 AM37 °FClear.18 mph81%29.92 "Hg10 mi
1:20 AM37 °FClear.14 mph81%29.95 "Hg10 mi
12:50 AM37 °FClear.14 mph87%30.01 "Hg10 mi
12:20 AM37 °FClear.14 mph87%30.04 "Hg10 mi
11:50 PM
Dec 26
37 °FClear.13 mph87%30.07 "Hg10 mi
11:20 PM37 °FPassing clouds.14 mph87%30.09 "HgN/A
10:50 PM37 °FPassing clouds.10 mph93%30.12 "HgN/A
10:20 PM37 °FClear.9 mph93%30.12 "Hg10 mi
Weather by CustomWeather, © 2014

See weather overviewHow to use our weather pages